Year,Month,Day,Hour,Minute,Value (Times are PST for temperature in C)
2016,02,25,00,00,2.90
2016,02,25,00,01,2.90
2016,02,25,00,02,2.90
2016,02,25,00,03,2.80
2016,02,25,00,04,2.80
2016,02,25,00,05,2.80
2016,02,25,00,06,2.80
2016,02,25,00,07,2.80
2016,02,25,00,08,2.80
2016,02,25,00,09,2.80
2016,02,25,00,10,2.80
2016,02,25,00,11,2.80
2016,02,25,00,12,2.80
2016,02,25,00,13,2.80
2016,02,25,00,14,2.80
2016,02,25,00,15,2.80
2016,02,25,00,16,2.80
2016,02,25,00,17,2.80
2016,02,25,00,18,2.70
2016,02,25,00,19,2.70
2016,02,25,00,20,2.70
2016,02,25,00,21,2.70
2016,02,25,00,22,2.70
2016,02,25,00,23,2.70
2016,02,25,00,24,2.60
2016,02,25,00,25,2.60
2016,02,25,00,26,2.60
2016,02,25,00,27,2.60
2016,02,25,00,28,2.60
2016,02,25,00,29,2.60
2016,02,25,00,30,2.60
2016,02,25,00,31,2.60
2016,02,25,00,32,2.60
2016,02,25,00,33,2.60
2016,02,25,00,34,2.60
2016,02,25,00,35,2.60
2016,02,25,00,36,2.60
2016,02,25,00,37,2.70
2016,02,25,00,38,2.70
2016,02,25,00,39,2.70
2016,02,25,00,40,2.70
2016,02,25,00,41,2.70
2016,02,25,00,42,2.70
2016,02,25,00,43,2.70
2016,02,25,00,44,2.70
2016,02,25,00,45,2.60
2016,02,25,00,46,2.60
2016,02,25,00,47,2.60
2016,02,25,00,48,2.60
2016,02,25,00,49,2.60
2016,02,25,00,50,2.60
2016,02,25,00,51,2.60
2016,02,25,00,52,2.60
2016,02,25,00,53,2.60
2016,02,25,00,54,2.60
2016,02,25,00,55,2.60
2016,02,25,00,56,2.60
2016,02,25,00,57,2.60
2016,02,25,00,58,2.60
2016,02,25,00,59,2.60
2016,02,25,01,00,2.60
2016,02,25,01,01,2.60
2016,02,25,01,02,2.60
2016,02,25,01,03,2.50
2016,02,25,01,04,2.50
2016,02,25,01,05,2.50
2016,02,25,01,06,2.50
2016,02,25,01,07,2.50
2016,02,25,01,08,2.50
2016,02,25,01,09,2.50
2016,02,25,01,10,2.50
2016,02,25,01,11,2.50
2016,02,25,01,12,2.50
2016,02,25,01,13,2.50
2016,02,25,01,14,2.50
2016,02,25,01,15,2.40
2016,02,25,01,16,2.40
2016,02,25,01,17,2.40
2016,02,25,01,18,2.40
2016,02,25,01,19,2.40
2016,02,25,01,20,2.40
2016,02,25,01,21,2.40
2016,02,25,01,22,2.40
2016,02,25,01,23,2.40
2016,02,25,01,24,2.30
2016,02,25,01,25,2.30
2016,02,25,01,26,2.30
2016,02,25,01,27,2.30
2016,02,25,01,28,2.30
2016,02,25,01,29,2.30
2016,02,25,01,30,2.30
2016,02,25,01,31,2.30
2016,02,25,01,32,2.30
2016,02,25,01,33,2.20
2016,02,25,01,34,2.20
2016,02,25,01,35,2.20
2016,02,25,01,36,2.20
2016,02,25,01,37,2.20
2016,02,25,01,38,2.20
2016,02,25,01,39,2.20
2016,02,25,01,40,2.20
2016,02,25,01,41,2.20
2016,02,25,01,42,2.20
2016,02,25,01,43,2.20
2016,02,25,01,44,2.20
2016,02,25,01,45,2.20
2016,02,25,01,46,2.20
2016,02,25,01,47,2.20
2016,02,25,01,48,2.20
2016,02,25,01,49,2.20
2016,02,25,01,50,2.10
2016,02,25,01,51,2.10
2016,02,25,01,52,2.10
2016,02,25,01,53,2.10
2016,02,25,01,54,2.10
2016,02,25,01,55,2.00
2016,02,25,01,56,2.00
2016,02,25,01,57,2.00
2016,02,25,01,58,2.00
2016,02,25,01,59,2.00
2016,02,25,02,00,2.00
2016,02,25,02,01,1.90
2016,02,25,02,02,1.90
2016,02,25,02,03,1.90
2016,02,25,02,04,1.90
2016,02,25,02,05,1.90
2016,02,25,02,06,1.90
2016,02,25,02,07,1.90
2016,02,25,02,08,1.90
2016,02,25,02,09,1.90
2016,02,25,02,10,2.00
2016,02,25,02,11,2.00
2016,02,25,02,12,2.00
2016,02,25,02,13,2.00
2016,02,25,02,14,2.00
2016,02,25,02,15,2.00
2016,02,25,02,16,2.00
2016,02,25,02,17,2.00
2016,02,25,02,18,2.00
2016,02,25,02,19,2.00
2016,02,25,02,20,2.00
2016,02,25,02,21,1.90
2016,02,25,02,22,1.90
2016,02,25,02,23,1.90
2016,02,25,02,24,1.90
2016,02,25,02,25,1.90
2016,02,25,02,26,1.90
2016,02,25,02,27,1.90
2016,02,25,02,28,1.90
2016,02,25,02,29,1.90
2016,02,25,02,30,1.90
2016,02,25,02,31,1.90
2016,02,25,02,32,1.90
2016,02,25,02,33,1.80
2016,02,25,02,34,1.80
2016,02,25,02,35,1.90
2016,02,25,02,36,1.90
2016,02,25,02,37,1.90
2016,02,25,02,38,1.90
2016,02,25,02,39,1.90
2016,02,25,02,40,1.90
2016,02,25,02,41,1.90
2016,02,25,02,42,1.90
2016,02,25,02,43,1.90
2016,02,25,02,44,1.90
2016,02,25,02,45,1.90
2016,02,25,02,46,1.80
2016,02,25,02,47,1.80
2016,02,25,02,48,1.80
2016,02,25,02,49,1.80
2016,02,25,02,50,1.80
2016,02,25,02,51,1.80
2016,02,25,02,52,1.70
2016,02,25,02,53,1.70
2016,02,25,02,54,1.70
2016,02,25,02,55,1.70
2016,02,25,02,56,1.70
2016,02,25,02,57,1.70
2016,02,25,02,58,1.70
2016,02,25,02,59,1.70
2016,02,25,03,00,1.70
2016,02,25,03,01,1.70
2016,02,25,03,02,1.70
2016,02,25,03,03,1.70
2016,02,25,03,04,1.70
2016,02,25,03,05,1.80
2016,02,25,03,06,1.80
2016,02,25,03,07,1.80
2016,02,25,03,08,1.80
2016,02,25,03,09,1.70
2016,02,25,03,10,1.70
2016,02,25,03,11,1.70
2016,02,25,03,12,1.70
2016,02,25,03,13,1.70
2016,02,25,03,14,1.70
2016,02,25,03,15,1.70
2016,02,25,03,16,1.70
2016,02,25,03,17,1.70
2016,02,25,03,18,1.70
2016,02,25,03,19,1.70
2016,02,25,03,20,1.70
2016,02,25,03,21,1.70
2016,02,25,03,22,1.70
2016,02,25,03,23,1.70
2016,02,25,03,24,1.70
2016,02,25,03,25,1.70
2016,02,25,03,26,1.70
2016,02,25,03,27,1.60
2016,02,25,03,28,1.60
2016,02,25,03,29,1.60
2016,02,25,03,30,1.60
2016,02,25,03,31,1.60
2016,02,25,03,32,1.60
2016,02,25,03,33,1.60
2016,02,25,03,34,1.60
2016,02,25,03,35,1.60
2016,02,25,03,36,1.60
2016,02,25,03,37,1.50
2016,02,25,03,38,1.50
2016,02,25,03,39,1.50
2016,02,25,03,40,1.40
2016,02,25,03,41,1.40
2016,02,25,03,42,1.40
2016,02,25,03,43,1.40
2016,02,25,03,44,1.40
2016,02,25,03,45,1.40
2016,02,25,03,46,1.40
2016,02,25,03,47,1.40
2016,02,25,03,48,1.40
2016,02,25,03,49,1.40
2016,02,25,03,50,1.40
2016,02,25,03,51,1.40
2016,02,25,03,52,1.40
2016,02,25,03,53,1.40
2016,02,25,03,54,1.40
2016,02,25,03,55,1.40
2016,02,25,03,56,1.40
2016,02,25,03,57,1.40
2016,02,25,03,58,1.40
2016,02,25,03,59,1.40
2016,02,25,04,00,1.40
2016,02,25,04,01,1.40
2016,02,25,04,02,1.50
2016,02,25,04,03,1.50
2016,02,25,04,04,1.40
2016,02,25,04,05,1.40
2016,02,25,04,06,1.40
2016,02,25,04,07,1.40
2016,02,25,04,09,1.40
2016,02,25,04,10,1.30
2016,02,25,04,11,1.30
2016,02,25,04,12,1.30
2016,02,25,04,13,1.30
2016,02,25,04,14,1.30
2016,02,25,04,15,1.30
2016,02,25,04,16,1.30
2016,02,25,04,17,1.30
2016,02,25,04,18,1.30
2016,02,25,04,19,1.30
2016,02,25,04,20,1.30
2016,02,25,04,21,1.30
2016,02,25,04,22,1.30
2016,02,25,04,23,1.30
2016,02,25,04,24,1.30
2016,02,25,04,25,1.30
2016,02,25,04,26,1.30
2016,02,25,04,27,1.30
2016,02,25,04,28,1.20
2016,02,25,04,29,1.20
2016,02,25,04,30,1.20
2016,02,25,04,31,1.20
2016,02,25,04,32,1.10
2016,02,25,04,33,1.10
2016,02,25,04,34,1.10
2016,02,25,04,35,1.10
2016,02,25,04,36,1.10
2016,02,25,04,37,1.10
2016,02,25,04,38,1.10
2016,02,25,04,39,1.10
2016,02,25,04,40,1.10
2016,02,25,04,41,1.10
2016,02,25,04,42,1.10
2016,02,25,04,43,1.10
2016,02,25,04,44,1.10
2016,02,25,04,45,1.10
2016,02,25,04,46,1.10
2016,02,25,04,47,1.10
2016,02,25,04,48,1.10
2016,02,25,04,49,1.00
2016,02,25,04,50,1.00
2016,02,25,04,51,1.00
2016,02,25,04,52,1.00
2016,02,25,04,53,1.00
2016,02,25,04,54,1.00
2016,02,25,04,55,1.00
2016,02,25,04,56,1.10
2016,02,25,04,57,1.10
2016,02,25,04,58,1.10
2016,02,25,04,59,1.10
2016,02,25,05,00,1.10
2016,02,25,05,01,1.10
2016,02,25,05,02,1.20
2016,02,25,05,03,1.20
2016,02,25,05,04,1.20
2016,02,25,05,05,1.20
2016,02,25,05,06,1.20
2016,02,25,05,07,1.20
2016,02,25,05,08,1.20
2016,02,25,05,09,1.30
2016,02,25,05,10,1.30
2016,02,25,05,11,1.30
2016,02,25,05,12,1.30
2016,02,25,05,13,1.30
2016,02,25,05,14,1.30
2016,02,25,05,15,1.30
2016,02,25,05,16,1.30
2016,02,25,05,17,1.20
2016,02,25,05,18,1.20
2016,02,25,05,19,1.20
2016,02,25,05,20,1.20
2016,02,25,05,21,1.20
2016,02,25,05,22,1.20
2016,02,25,05,23,1.20
2016,02,25,05,24,1.20
2016,02,25,05,25,1.20
2016,02,25,05,26,1.20
2016,02,25,05,27,1.20
2016,02,25,05,28,1.20
2016,02,25,05,29,1.30
2016,02,25,05,30,1.30
2016,02,25,05,31,1.30
2016,02,25,05,32,1.30
2016,02,25,05,33,1.30
2016,02,25,05,34,1.30
2016,02,25,05,35,1.30
2016,02,25,05,36,1.30
2016,02,25,05,37,1.30
2016,02,25,05,38,1.30
2016,02,25,05,39,1.30
2016,02,25,05,40,1.30
2016,02,25,05,41,1.30
2016,02,25,05,42,1.30
2016,02,25,05,43,1.30
2016,02,25,05,44,1.30
2016,02,25,05,45,1.30
2016,02,25,05,46,1.30
2016,02,25,05,47,1.30
2016,02,25,05,48,1.30
2016,02,25,05,49,1.30
2016,02,25,05,50,1.30
2016,02,25,05,51,1.30
2016,02,25,05,52,1.30
2016,02,25,05,53,1.30
2016,02,25,05,54,1.30
2016,02,25,05,55,1.30
2016,02,25,05,56,1.30
2016,02,25,05,57,1.30
2016,02,25,05,58,1.30
2016,02,25,05,59,1.30
2016,02,25,06,00,1.30
2016,02,25,06,01,1.30
2016,02,25,06,02,1.20
2016,02,25,06,03,1.20
2016,02,25,06,04,1.20
2016,02,25,06,05,1.20
2016,02,25,06,06,1.30
2016,02,25,06,07,1.30
2016,02,25,06,08,1.30
2016,02,25,06,09,1.30
2016,02,25,06,10,1.30
2016,02,25,06,11,1.40
2016,02,25,06,12,1.40
2016,02,25,06,13,1.40
2016,02,25,06,14,1.50
2016,02,25,06,15,1.50
2016,02,25,06,16,1.60
2016,02,25,06,17,1.60
2016,02,25,06,18,1.60
2016,02,25,06,19,1.60
2016,02,25,06,20,1.60
2016,02,25,06,21,1.60
2016,02,25,06,22,1.60
2016,02,25,06,23,1.60
2016,02,25,06,24,1.60
2016,02,25,06,25,1.60
2016,02,25,06,26,1.60
2016,02,25,06,27,1.60
2016,02,25,06,28,1.60
2016,02,25,06,29,1.60
2016,02,25,06,30,1.60
2016,02,25,06,31,1.50
2016,02,25,06,32,1.50
2016,02,25,06,33,1.60
2016,02,25,06,34,1.50
2016,02,25,06,35,1.50
2016,02,25,06,36,1.50
2016,02,25,06,37,1.50
2016,02,25,06,38,1.50
2016,02,25,06,39,1.50
2016,02,25,06,40,1.50
2016,02,25,06,41,1.50
2016,02,25,06,42,1.50
2016,02,25,06,43,1.40
2016,02,25,06,44,1.50
2016,02,25,06,45,1.50
2016,02,25,06,46,1.40
2016,02,25,06,47,1.40
2016,02,25,06,48,1.40
2016,02,25,06,49,1.40
2016,02,25,06,50,1.40
2016,02,25,06,51,1.40
2016,02,25,06,52,1.40
2016,02,25,06,53,1.40
2016,02,25,06,54,1.40
2016,02,25,06,55,1.40
2016,02,25,06,56,1.40
2016,02,25,06,57,1.40
2016,02,25,06,58,1.40
2016,02,25,06,59,1.40
2016,02,25,07,00,1.40
2016,02,25,07,01,1.40
2016,02,25,07,02,1.40
2016,02,25,07,03,1.40
2016,02,25,07,04,1.40
2016,02,25,07,05,1.40
2016,02,25,07,06,1.40
2016,02,25,07,07,1.40
2016,02,25,07,08,1.40
2016,02,25,07,09,1.40
2016,02,25,07,10,1.40
2016,02,25,07,11,1.40
2016,02,25,07,12,1.40
2016,02,25,07,13,1.40
2016,02,25,07,14,1.40
2016,02,25,07,15,1.40
2016,02,25,07,16,1.40
2016,02,25,07,17,1.40
2016,02,25,07,18,1.40
2016,02,25,07,19,1.50
2016,02,25,07,20,1.50
2016,02,25,07,21,1.50
2016,02,25,07,22,1.50
2016,02,25,07,23,1.50
2016,02,25,07,24,1.60
2016,02,25,07,25,1.60
2016,02,25,07,26,1.60
2016,02,25,07,27,1.60
2016,02,25,07,28,1.60
2016,02,25,07,29,1.60
2016,02,25,07,30,1.60
2016,02,25,07,31,1.70
2016,02,25,07,32,1.70
2016,02,25,07,33,1.70
2016,02,25,07,34,1.70
2016,02,25,07,35,1.70
2016,02,25,07,36,1.80
2016,02,25,07,37,1.80
2016,02,25,07,38,1.80
2016,02,25,07,39,1.80
2016,02,25,07,40,1.80
2016,02,25,07,41,1.80
2016,02,25,07,42,1.80
2016,02,25,07,43,1.80
2016,02,25,07,44,1.80
2016,02,25,07,45,1.80
2016,02,25,07,46,1.80
2016,02,25,07,47,1.80
2016,02,25,07,48,1.90
2016,02,25,07,49,1.90
2016,02,25,07,50,1.90
2016,02,25,07,51,1.90
2016,02,25,07,52,1.90
2016,02,25,07,53,1.90
2016,02,25,07,54,1.90
2016,02,25,07,55,1.90
2016,02,25,07,56,1.90
2016,02,25,07,57,1.90
2016,02,25,07,58,1.90
2016,02,25,07,59,2.00
2016,02,25,08,00,2.00
2016,02,25,08,01,2.00
2016,02,25,08,02,2.00
2016,02,25,08,03,2.00
2016,02,25,08,04,2.00
2016,02,25,08,05,2.00
2016,02,25,08,06,2.00
2016,02,25,08,07,2.00
2016,02,25,08,08,2.00
2016,02,25,08,09,2.00
2016,02,25,08,10,2.00
2016,02,25,08,11,2.00
2016,02,25,08,12,2.00
2016,02,25,08,13,2.00
2016,02,25,08,14,2.10
2016,02,25,08,15,2.10
2016,02,25,08,16,2.10
2016,02,25,08,17,2.10
2016,02,25,08,18,2.10
2016,02,25,08,19,2.10
2016,02,25,08,20,2.10
2016,02,25,08,21,2.10
2016,02,25,08,22,2.20
2016,02,25,08,23,2.20
2016,02,25,08,24,2.20
2016,02,25,08,25,2.20
2016,02,25,08,26,2.20
2016,02,25,08,27,2.30
2016,02,25,08,28,2.30
2016,02,25,08,29,2.30
2016,02,25,08,30,2.30
2016,02,25,08,31,2.30
2016,02,25,08,32,2.30
2016,02,25,08,33,2.30
2016,02,25,08,34,2.30
2016,02,25,08,35,2.30
2016,02,25,08,36,2.40
2016,02,25,08,37,2.40
2016,02,25,08,38,2.40
2016,02,25,08,39,2.40
2016,02,25,08,40,2.40
2016,02,25,08,41,2.40
2016,02,25,08,42,2.40
2016,02,25,08,43,2.50
2016,02,25,08,44,2.50
2016,02,25,08,45,2.50
2016,02,25,08,46,2.50
2016,02,25,08,47,2.50
2016,02,25,08,48,2.50
2016,02,25,08,49,2.50
2016,02,25,08,50,2.50
2016,02,25,08,51,2.50
2016,02,25,08,52,2.50
2016,02,25,08,53,2.50
2016,02,25,08,54,2.50
2016,02,25,08,55,2.50
2016,02,25,08,56,2.60
2016,02,25,08,57,2.60
2016,02,25,08,58,2.60
2016,02,25,08,59,2.60
2016,02,25,09,00,2.60
2016,02,25,09,01,2.70
2016,02,25,09,02,2.70
2016,02,25,09,03,2.70
2016,02,25,09,04,2.80
2016,02,25,09,05,2.80
2016,02,25,09,06,2.90
2016,02,25,09,07,2.90
2016,02,25,09,08,2.90
2016,02,25,09,09,3.00
2016,02,25,09,10,3.00
2016,02,25,09,11,3.10
2016,02,25,09,12,3.10
2016,02,25,09,13,3.20
2016,02,25,09,14,3.20
2016,02,25,09,15,3.30
2016,02,25,09,16,3.30
2016,02,25,09,17,3.40
2016,02,25,09,18,3.40
2016,02,25,09,19,3.50
2016,02,25,09,20,3.50
2016,02,25,09,21,3.50
2016,02,25,09,22,3.60
2016,02,25,09,23,3.60
2016,02,25,09,24,3.60
2016,02,25,09,25,3.60
2016,02,25,09,26,3.60
2016,02,25,09,27,3.60
2016,02,25,09,28,3.70
2016,02,25,09,29,3.70
2016,02,25,09,30,3.70
2016,02,25,09,31,3.70
2016,02,25,09,32,3.70
2016,02,25,09,33,3.70
2016,02,25,09,34,3.70
2016,02,25,09,35,3.70
2016,02,25,09,36,3.70
2016,02,25,09,37,3.70
2016,02,25,09,38,3.70
2016,02,25,09,39,3.70
2016,02,25,09,40,3.70
2016,02,25,09,41,3.70
2016,02,25,09,42,3.80
2016,02,25,09,43,3.80
2016,02,25,09,44,3.80
2016,02,25,09,45,3.80
2016,02,25,09,46,3.90
2016,02,25,09,47,3.90
2016,02,25,09,48,3.90
2016,02,25,09,49,3.90
2016,02,25,09,50,3.90
2016,02,25,09,51,4.00
2016,02,25,09,52,4.00
2016,02,25,09,53,4.00
2016,02,25,09,54,4.00
2016,02,25,09,55,4.00
2016,02,25,09,56,4.00
2016,02,25,09,57,4.00
2016,02,25,09,58,4.00
2016,02,25,09,59,4.00
2016,02,25,10,00,4.00
2016,02,25,10,01,4.00
2016,02,25,10,02,3.90
2016,02,25,10,03,4.00
2016,02,25,10,04,4.00
2016,02,25,10,05,4.00
2016,02,25,10,06,4.00
2016,02,25,10,07,4.00
2016,02,25,10,08,4.00
2016,02,25,10,09,4.00
2016,02,25,10,10,4.00
2016,02,25,10,11,4.10
2016,02,25,10,12,4.10
2016,02,25,10,13,4.10
2016,02,25,10,14,4.10
2016,02,25,10,15,4.10
2016,02,25,10,16,4.10
2016,02,25,10,17,4.20
2016,02,25,10,18,4.20
2016,02,25,10,19,4.20
2016,02,25,10,20,4.30
2016,02,25,10,21,4.30
2016,02,25,10,22,4.30
2016,02,25,10,23,4.30
2016,02,25,10,24,4.30
2016,02,25,10,25,4.30
2016,02,25,10,26,4.40
2016,02,25,10,27,4.40
2016,02,25,10,28,4.40
2016,02,25,10,29,4.40
2016,02,25,10,30,4.40
2016,02,25,10,31,4.50
2016,02,25,10,32,4.50
2016,02,25,10,33,4.50
2016,02,25,10,34,4.60
2016,02,25,10,35,4.60
2016,02,25,10,36,4.70
2016,02,25,10,37,4.70
2016,02,25,10,38,4.70
2016,02,25,10,39,4.70
2016,02,25,10,40,4.80
2016,02,25,10,41,4.80
2016,02,25,10,42,4.80
2016,02,25,10,43,4.90
2016,02,25,10,44,4.90
2016,02,25,10,45,4.90
2016,02,25,10,46,4.90
2016,02,25,10,47,4.90
2016,02,25,10,48,4.90
2016,02,25,10,49,4.90
2016,02,25,10,50,4.90
2016,02,25,10,51,5.00
2016,02,25,10,52,5.00
2016,02,25,10,53,5.00
2016,02,25,10,54,5.10
2016,02,25,10,55,5.10
2016,02,25,10,56,5.10
2016,02,25,10,57,5.10
2016,02,25,10,58,5.20
2016,02,25,10,59,5.20
2016,02,25,11,00,5.20
2016,02,25,11,01,5.20
2016,02,25,11,02,5.20
2016,02,25,11,03,5.20
2016,02,25,11,04,5.20
2016,02,25,11,05,5.30
2016,02,25,11,06,5.30
2016,02,25,11,07,5.30
2016,02,25,11,08,5.30
2016,02,25,11,09,5.30
2016,02,25,11,10,5.30
2016,02,25,11,11,5.30
2016,02,25,11,12,5.30
2016,02,25,11,13,5.30
2016,02,25,11,14,5.40
2016,02,25,11,15,5.30
2016,02,25,11,16,5.40
2016,02,25,11,17,5.40
2016,02,25,11,18,5.40
2016,02,25,11,19,5.40
2016,02,25,11,20,5.40
2016,02,25,11,21,5.40
2016,02,25,11,22,5.40
2016,02,25,11,23,5.40
2016,02,25,11,24,5.50
2016,02,25,11,25,5.50
2016,02,25,11,26,5.50
2016,02,25,11,27,5.60
2016,02,25,11,28,5.60
2016,02,25,11,29,5.60
2016,02,25,11,30,5.60
2016,02,25,11,31,5.60
2016,02,25,11,32,5.70
2016,02,25,11,33,5.70
2016,02,25,11,34,5.70
2016,02,25,11,35,5.70
2016,02,25,11,36,5.70
2016,02,25,11,37,5.70
2016,02,25,11,38,5.70
2016,02,25,11,39,5.80
2016,02,25,11,40,5.80
2016,02,25,11,41,5.80
2016,02,25,11,42,5.80
2016,02,25,11,43,5.80
2016,02,25,11,44,5.90
2016,02,25,11,45,5.90
2016,02,25,11,46,5.90
2016,02,25,11,47,6.00
2016,02,25,11,48,6.00
2016,02,25,11,49,6.10
2016,02,25,11,50,6.10
2016,02,25,11,51,6.10
2016,02,25,11,52,6.10
2016,02,25,11,53,6.10
2016,02,25,11,54,6.10
2016,02,25,11,55,6.10
2016,02,25,11,56,6.20
2016,02,25,11,57,6.20
2016,02,25,11,58,6.20
2016,02,25,11,59,6.20
2016,02,25,12,00,6.20
2016,02,25,12,01,6.30
2016,02,25,12,02,6.30
2016,02,25,12,03,6.40
2016,02,25,12,04,6.50
2016,02,25,12,05,6.50
2016,02,25,12,06,6.60
2016,02,25,12,07,6.60
2016,02,25,12,08,6.70
2016,02,25,12,09,6.80
2016,02,25,12,10,6.80
2016,02,25,12,11,6.90
2016,02,25,12,12,7.00
2016,02,25,12,13,7.00
2016,02,25,12,14,7.10
2016,02,25,12,15,7.20
2016,02,25,12,16,7.30
2016,02,25,12,17,7.30
2016,02,25,12,18,7.40
2016,02,25,12,19,7.50
2016,02,25,12,20,7.50
2016,02,25,12,21,7.60
2016,02,25,12,22,7.60
2016,02,25,12,23,7.70
2016,02,25,12,24,7.70
2016,02,25,12,25,7.80
2016,02,25,12,26,7.80
2016,02,25,12,27,7.90
2016,02,25,12,28,7.90
2016,02,25,12,29,8.00
2016,02,25,12,30,8.10
2016,02,25,12,31,8.10
2016,02,25,12,32,8.10
2016,02,25,12,33,8.20
2016,02,25,12,34,8.20
2016,02,25,12,35,8.20
2016,02,25,12,36,8.20
2016,02,25,12,37,8.20
2016,02,25,12,38,8.20
2016,02,25,12,39,8.20
2016,02,25,12,40,8.20
2016,02,25,12,41,8.30
2016,02,25,12,42,8.30
2016,02,25,12,43,8.40
2016,02,25,12,44,8.40
2016,02,25,12,45,8.40
2016,02,25,12,46,8.50
2016,02,25,12,47,8.60
2016,02,25,12,48,8.60
2016,02,25,12,49,8.60
2016,02,25,12,50,8.60
2016,02,25,12,51,8.70
2016,02,25,12,52,8.70
2016,02,25,12,53,8.80
2016,02,25,12,54,8.80
2016,02,25,12,55,8.80
2016,02,25,12,56,8.90
2016,02,25,12,57,8.90
2016,02,25,12,58,8.90
2016,02,25,12,59,8.90
2016,02,25,13,00,8.90
2016,02,25,13,01,8.90
2016,02,25,13,02,8.90
2016,02,25,13,03,9.00
2016,02,25,13,04,9.00
2016,02,25,13,05,9.00
2016,02,25,13,06,9.10
2016,02,25,13,07,9.10
2016,02,25,13,08,9.20
2016,02,25,13,09,9.20
2016,02,25,13,10,9.20
2016,02,25,13,11,9.30
2016,02,25,13,12,9.30
2016,02,25,13,13,9.30
2016,02,25,13,14,9.20
2016,02,25,13,15,9.20
2016,02,25,13,16,9.20
2016,02,25,13,17,9.20
2016,02,25,13,18,9.30
2016,02,25,13,19,9.30
2016,02,25,13,20,9.30
2016,02,25,13,21,9.30
2016,02,25,13,22,9.30
2016,02,25,13,23,9.30
2016,02,25,13,24,9.30
2016,02,25,13,25,9.30
2016,02,25,13,26,9.30
2016,02,25,13,27,9.30
2016,02,25,13,28,9.30
2016,02,25,13,29,9.20
2016,02,25,13,30,9.30
2016,02,25,13,31,9.20
2016,02,25,13,32,9.30
2016,02,25,13,33,9.30
2016,02,25,13,34,9.30
2016,02,25,13,35,9.30
2016,02,25,13,36,9.30
2016,02,25,13,37,9.30
2016,02,25,13,38,9.40
2016,02,25,13,39,9.40
2016,02,25,13,40,9.40
2016,02,25,13,41,9.40
2016,02,25,13,42,9.40
2016,02,25,13,43,9.40
2016,02,25,13,44,9.40
2016,02,25,13,45,9.40
2016,02,25,13,46,9.50
2016,02,25,13,47,9.50
2016,02,25,13,48,9.50
2016,02,25,13,49,9.50
2016,02,25,13,50,9.60
2016,02,25,13,51,9.60
2016,02,25,13,52,9.60
2016,02,25,13,53,9.60
2016,02,25,13,54,9.70
2016,02,25,13,55,9.70
2016,02,25,13,56,9.70
2016,02,25,13,57,9.70
2016,02,25,13,58,9.70
2016,02,25,13,59,9.70
2016,02,25,14,00,9.80
2016,02,25,14,01,9.80
2016,02,25,14,02,9.90
2016,02,25,14,03,9.90
2016,02,25,14,04,10.00
2016,02,25,14,05,10.10
2016,02,25,14,06,10.20
2016,02,25,14,07,10.20
2016,02,25,14,08,10.30
2016,02,25,14,09,10.30
2016,02,25,14,10,10.40
2016,02,25,14,11,10.40
2016,02,25,14,12,10.50
2016,02,25,14,13,10.60
2016,02,25,14,14,10.60
2016,02,25,14,15,10.60
2016,02,25,14,16,10.60
2016,02,25,14,17,10.60
2016,02,25,14,18,10.60
2016,02,25,14,19,10.60
2016,02,25,14,20,10.60
2016,02,25,14,21,10.60
2016,02,25,14,22,10.70
2016,02,25,14,23,10.70
2016,02,25,14,24,10.70
2016,02,25,14,25,10.70
2016,02,25,14,26,10.60
2016,02,25,14,27,10.60
2016,02,25,14,28,10.60
2016,02,25,14,29,10.60
2016,02,25,14,30,10.60
2016,02,25,14,31,10.60
2016,02,25,14,32,10.60
2016,02,25,14,33,10.70
2016,02,25,14,34,10.70
2016,02,25,14,35,10.70
2016,02,25,14,36,10.60
2016,02,25,14,37,10.60
2016,02,25,14,38,10.60
2016,02,25,14,39,10.60
2016,02,25,14,40,10.50
2016,02,25,14,41,10.50
2016,02,25,14,42,10.50
2016,02,25,14,43,10.50
2016,02,25,14,44,10.50
2016,02,25,14,45,10.50
2016,02,25,14,46,10.50
2016,02,25,14,47,10.50
2016,02,25,14,48,10.50
2016,02,25,14,49,10.40
2016,02,25,14,50,10.40
2016,02,25,14,51,10.40
2016,02,25,14,52,10.30
2016,02,25,14,53,10.30
2016,02,25,14,54,10.30
2016,02,25,14,55,10.20
2016,02,25,14,56,10.20
2016,02,25,14,57,10.20
2016,02,25,14,58,10.10
2016,02,25,14,59,10.10
2016,02,25,15,00,10.00
2016,02,25,15,01,10.00
2016,02,25,15,02,9.90
2016,02,25,15,03,9.90
2016,02,25,15,04,9.90
2016,02,25,15,05,9.90
2016,02,25,15,06,9.80
2016,02,25,15,07,9.80
2016,02,25,15,08,9.80
2016,02,25,15,09,9.70
2016,02,25,15,10,9.70
2016,02,25,15,11,9.70
2016,02,25,15,12,9.70
2016,02,25,15,13,9.70
2016,02,25,15,14,9.70
2016,02,25,15,15,9.70
2016,02,25,15,16,9.70
2016,02,25,15,17,9.70
2016,02,25,15,18,9.70
2016,02,25,15,19,9.80
2016,02,25,15,20,9.80
2016,02,25,15,21,9.80
2016,02,25,15,22,9.80
2016,02,25,15,23,9.80
2016,02,25,15,24,9.80
2016,02,25,15,25,9.70
2016,02,25,15,26,9.70
2016,02,25,15,27,9.70
2016,02,25,15,28,9.70
2016,02,25,15,29,9.70
2016,02,25,15,30,9.70
2016,02,25,15,31,9.60
2016,02,25,15,32,9.60
2016,02,25,15,33,9.60
2016,02,25,15,34,9.60
2016,02,25,15,35,9.70
2016,02,25,15,36,9.70
2016,02,25,15,37,9.80
2016,02,25,15,38,9.80
2016,02,25,15,39,9.90
2016,02,25,15,40,10.00
2016,02,25,15,41,10.00
2016,02,25,15,42,10.10
2016,02,25,15,43,10.10
2016,02,25,15,44,10.20
2016,02,25,15,45,10.20
2016,02,25,15,46,10.30
2016,02,25,15,47,10.30
2016,02,25,15,48,10.40
2016,02,25,15,49,10.40
2016,02,25,15,50,10.50
2016,02,25,15,51,10.50
2016,02,25,15,52,10.50
2016,02,25,15,53,10.50
2016,02,25,15,54,10.50
2016,02,25,15,55,10.60
2016,02,25,15,56,10.60
2016,02,25,15,57,10.60
2016,02,25,15,58,10.60
2016,02,25,15,59,10.60
2016,02,25,16,00,10.60
2016,02,25,16,01,10.50
2016,02,25,16,02,10.50
2016,02,25,16,03,10.50
2016,02,25,16,04,10.50
2016,02,25,16,05,10.40
2016,02,25,16,06,10.40
2016,02,25,16,07,10.30
2016,02,25,16,08,10.30
2016,02,25,16,09,10.20
2016,02,25,16,10,10.20
2016,02,25,16,11,10.20
2016,02,25,16,12,10.10
2016,02,25,16,13,10.10
2016,02,25,16,14,10.00
2016,02,25,16,15,9.90
2016,02,25,16,16,9.90
2016,02,25,16,17,9.80
2016,02,25,16,18,9.80
2016,02,25,16,19,9.70
2016,02,25,16,20,9.70
2016,02,25,16,21,9.70
2016,02,25,16,22,9.70
2016,02,25,16,23,9.60
2016,02,25,16,24,9.50
2016,02,25,16,25,9.50
2016,02,25,16,26,9.50
2016,02,25,16,27,9.40
2016,02,25,16,28,9.40
2016,02,25,16,29,9.40
2016,02,25,16,30,9.30
2016,02,25,16,31,9.30
2016,02,25,16,32,9.30
2016,02,25,16,33,9.30
2016,02,25,16,34,9.20
2016,02,25,16,35,9.20
2016,02,25,16,36,9.20
2016,02,25,16,37,9.10
2016,02,25,16,38,9.10
2016,02,25,16,39,9.10
2016,02,25,16,40,9.10
2016,02,25,16,41,9.10
2016,02,25,16,42,9.10
2016,02,25,16,43,9.00
2016,02,25,16,44,9.00
2016,02,25,16,45,9.00
2016,02,25,16,46,9.00
2016,02,25,16,47,9.00
2016,02,25,16,48,9.00
2016,02,25,16,49,9.00
2016,02,25,16,50,9.00
2016,02,25,16,51,9.00
2016,02,25,16,52,8.90
2016,02,25,16,53,8.90
2016,02,25,16,54,8.90
2016,02,25,16,55,8.90
2016,02,25,16,56,8.90
2016,02,25,16,57,8.90
2016,02,25,16,58,8.90
2016,02,25,16,59,8.90
2016,02,25,17,00,8.90
2016,02,25,17,01,8.80
2016,02,25,17,02,8.80
2016,02,25,17,03,8.80
2016,02,25,17,04,8.80
2016,02,25,17,05,8.80
2016,02,25,17,06,8.70
2016,02,25,17,07,8.70
2016,02,25,17,08,8.70
2016,02,25,17,09,8.70
2016,02,25,17,10,8.70
2016,02,25,17,11,8.70
2016,02,25,17,12,8.70
2016,02,25,17,13,8.70
2016,02,25,17,14,8.60
2016,02,25,17,15,8.60
2016,02,25,17,16,8.60
2016,02,25,17,17,8.60
2016,02,25,17,18,8.60
2016,02,25,17,19,8.60
2016,02,25,17,20,8.60
2016,02,25,17,21,8.60
2016,02,25,17,22,8.50
2016,02,25,17,23,8.50
2016,02,25,17,24,8.50
2016,02,25,17,25,8.40
2016,02,25,17,26,8.40
2016,02,25,17,27,8.40
2016,02,25,17,28,8.40
2016,02,25,17,29,8.30
2016,02,25,17,30,8.30
2016,02,25,17,31,8.30
2016,02,25,17,32,8.20
2016,02,25,17,33,8.20
2016,02,25,17,34,8.20
2016,02,25,17,35,8.20
2016,02,25,17,36,8.20
2016,02,25,17,37,8.20
2016,02,25,17,38,8.20
2016,02,25,17,39,8.10
2016,02,25,17,40,8.10
2016,02,25,17,41,8.10
2016,02,25,17,42,8.10
2016,02,25,17,43,8.00
2016,02,25,17,44,8.00
2016,02,25,17,45,7.90
2016,02,25,17,46,7.90
2016,02,25,17,47,7.90
2016,02,25,17,48,7.90
2016,02,25,17,49,7.90
2016,02,25,17,50,7.80
2016,02,25,17,51,7.80
2016,02,25,17,52,7.80
2016,02,25,17,53,7.80
2016,02,25,17,54,7.80
2016,02,25,17,55,7.70
2016,02,25,17,56,7.70
2016,02,25,17,57,7.70
2016,02,25,17,58,7.70
2016,02,25,17,59,7.70
2016,02,25,18,00,7.70
2016,02,25,18,01,7.70
2016,02,25,18,02,7.70
2016,02,25,18,03,7.70